EN

Hourly Weather Alterswil

Today, 24 January, Sunday

Time Temperature Precipitation Wind Pressure Humidity
00:00 -3°C° 1 mm 4 mps 683 mmHg 94%
01:00 -2°C° 0.4 mm 3 mps 683 mmHg 94%
02:00 -2°C° 0.4 mm 3 mps 684 mmHg 94%
03:00 -3°C° 0.4 mm 2 mps 684 mmHg 94%
04:00 -3°C° 0.2 mm 2 mps 684 mmHg 94%
05:00 -4°C° 0.2 mm 2 mps 685 mmHg 93%
06:00 -3°C° 0.2 mm 1 mps 685 mmHg 93%
07:00 -2°C° 0 mm 1 mps 685 mmHg 92%
08:00 -2°C° 0 mm 1 mps 686 mmHg 90%
09:00 -1°C° 0 mm 1 mps 686 mmHg 89%
10:00 0°C° 0 mm 1 mps 686 mmHg 87%
11:00 +1°C° 0 mm 1 mps 685 mmHg 85%
12:00 +1°C° 0 mm 2 mps 685 mmHg 82%
13:00 -1°C° 0 mm 2 mps 685 mmHg 84%
14:00 -1°C° 0 mm 2 mps 685 mmHg 85%
15:00 -1°C° 0 mm 2 mps 684 mmHg 87%
16:00 -2°C° 0.1 mm 2 mps 684 mmHg 88%
17:00 -2°C° 0.1 mm 3 mps 685 mmHg 90%
18:00 -4°C° 0.1 mm 3 mps 685 mmHg 91%
19:00 -4°C° 0.4 mm 3 mps 685 mmHg 92%
20:00 -4°C° 0.4 mm 3 mps 685 mmHg 94%
21:00 -4°C° 0.4 mm 3 mps 685 mmHg 95%
22:00 -4°C° 0.7 mm 3 mps 685 mmHg 94%
23:00 -4°C° 0.7 mm 3 mps 686 mmHg 94%

Tomorrow, 25 January, Monday

Time Temperature Precipitation Wind Pressure Humidity
00:00 -4°C° 0.7 mm 3 mps 686 mmHg 93%
01:00 -4°C° 0.7 mm 3 mps 687 mmHg 93%
02:00 -5°C° 0.7 mm 4 mps 687 mmHg 92%
03:00 -5°C° 0.7 mm 4 mps 688 mmHg 92%
04:00 -5°C° 0.3 mm 4 mps 688 mmHg 92%
05:00 -5°C° 0.3 mm 4 mps 689 mmHg 92%
06:00 -7°C° 0.3 mm 4 mps 690 mmHg 92%
07:00 -5°C° 0.3 mm 4 mps 691 mmHg 91%
08:00 -5°C° 0.3 mm 4 mps 691 mmHg 91%
09:00 -5°C° 0.3 mm 4 mps 692 mmHg 90%
10:00 -4°C° 0.1 mm 4 mps 693 mmHg 87%
11:00 -4°C° 0.1 mm 4 mps 693 mmHg 84%
12:00 -4°C° 0.1 mm 5 mps 693 mmHg 81%
13:00 -3°C° 0.1 mm 4 mps 693 mmHg 84%
14:00 -3°C° 0.1 mm 4 mps 693 mmHg 86%
15:00 -4°C° 0.1 mm 4 mps 693 mmHg 89%
16:00 -4°C° 0.3 mm 4 mps 694 mmHg 90%
17:00 -4°C° 0.3 mm 4 mps 694 mmHg 90%
18:00 -5°C° 0.3 mm 3 mps 695 mmHg 91%
19:00 -5°C° 0.3 mm 3 mps 695 mmHg 92%
20:00 -5°C° 0.3 mm 3 mps 696 mmHg 93%
21:00 -5°C° 0.3 mm 3 mps 696 mmHg 93%
22:00 -5°C° 0.2 mm 3 mps 696 mmHg 93%
23:00 -5°C° 0.2 mm 3 mps 696 mmHg 92%

Day after tomorrow, 26 January, Tuesday

Time Temperature Precipitation Wind Pressure Humidity
00:00 -5°C° 0.2 mm 3 mps 696 mmHg 92%
01:00 -6°C° 0.2 mm 3 mps 696 mmHg 92%
02:00 -6°C° 0.2 mm 3 mps 696 mmHg 92%
03:00 -6°C° 0.2 mm 3 mps 696 mmHg 92%
04:00 -6°C° 0.1 mm 3 mps 697 mmHg 92%
05:00 -5°C° 0.1 mm 2 mps 697 mmHg 92%
06:00 -5°C° 0.1 mm 2 mps 697 mmHg 93%
07:00 -4°C° 0.1 mm 2 mps 697 mmHg 92%
08:00 -4°C° 0.1 mm 2 mps 698 mmHg 92%
09:00 -3°C° 0.1 mm 2 mps 698 mmHg 92%
10:00 -2°C° 0 mm 2 mps 698 mmHg 91%
11:00 -1°C° 0 mm 2 mps 698 mmHg 89%
12:00 +1°C° 0 mm 2 mps 698 mmHg 88%
13:00 +1°C° 0 mm 2 mps 697 mmHg 88%
14:00 -1°C° 0 mm 2 mps 697 mmHg 89%
15:00 -1°C° 0 mm 2 mps 697 mmHg 89%
16:00 -1°C° 0 mm 2 mps 697 mmHg 89%
17:00 -2°C° 0 mm 2 mps 697 mmHg 89%
18:00 -2°C° 0 mm 2 mps 697 mmHg 88%
19:00 -2°C° 0.2 mm 2 mps 697 mmHg 90%
20:00 -2°C° 0.2 mm 2 mps 697 mmHg 91%
21:00 -2°C° 0.2 mm 3 mps 697 mmHg 93%
22:00 -2°C° 0.1 mm 3 mps 696 mmHg 93%
23:00 -1°C° 0.1 mm 3 mps 696 mmHg 93%

27 January, Wednesday

Time Temperature Precipitation Wind Pressure Humidity
00:00 -1°C° 0.1 mm 3 mps 696 mmHg 93%
01:00 -1°C° 0.2 mm 4 mps 696 mmHg 94%
02:00 -1°C° 0.2 mm 4 mps 696 mmHg 96%
03:00 0°C° 0.2 mm 4 mps 695 mmHg 97%
04:00 0°C° 0.4 mm 4 mps 696 mmHg 97%
05:00 +1°C° 0.4 mm 4 mps 696 mmHg 97%
06:00 +1°C° 0.4 mm 4 mps 696 mmHg 97%
07:00 +1°C° 0.4 mm 4 mps 696 mmHg 97%
08:00 +1°C° 0.4 mm 4 mps 697 mmHg 98%
09:00 +2°C° 0.4 mm 3 mps 697 mmHg 98%
10:00 +2°C° 0.2 mm 3 mps 698 mmHg 96%
11:00 +3°C° 0.2 mm 3 mps 698 mmHg 95%
12:00 +3°C° 0.2 mm 3 mps 698 mmHg 94%
13:00 +3°C° 0.1 mm 3 mps 699 mmHg 94%
14:00 +3°C° 0.1 mm 3 mps 699 mmHg 93%
15:00 +3°C° 0.1 mm 2 mps 699 mmHg 93%
16:00 +2°C° 0 mm 2 mps 699 mmHg 92%
17:00 +1°C° 0 mm 2 mps 699 mmHg 91%
18:00 -1°C° 0 mm 2 mps 700 mmHg 89%
19:00 -1°C° 0 mm 2 mps 700 mmHg 87%
20:00 -1°C° 0 mm 2 mps 700 mmHg 85%
21:00 -1°C° 0 mm 2 mps 699 mmHg 82%
22:00 -1°C° 0 mm 2 mps 699 mmHg 82%
23:00 -1°C° 0 mm 2 mps 699 mmHg 81%

28 January, Thursday

Time Temperature Precipitation Wind Pressure Humidity
00:00 -1°C° 0 mm 2 mps 698 mmHg 80%
01:00 +1°C° 0 mm 2 mps 698 mmHg 80%
02:00 +2°C° 0 mm 2 mps 698 mmHg 81%
03:00 +2°C° 0 mm 2 mps 697 mmHg 82%
04:00 +1°C° 0.4 mm 3 mps 697 mmHg 84%
05:00 +2°C° 0.4 mm 3 mps 697 mmHg 87%
06:00 +1°C° 0.4 mm 4 mps 697 mmHg 90%
07:00 +1°C° 0.1 mm 4 mps 697 mmHg 92%
08:00 +3°C° 0.1 mm 4 mps 697 mmHg 93%
09:00 +3°C° 0.1 mm 4 mps 697 mmHg 95%
10:00 +4°C° 0 mm 4 mps 697 mmHg 94%
11:00 +4°C° 0 mm 4 mps 696 mmHg 93%
12:00 +5°C° 0 mm 4 mps 696 mmHg 93%
13:00 +4°C° 0.5 mm 4 mps 696 mmHg 93%
14:00 +3°C° 0.5 mm 5 mps 695 mmHg 93%
15:00 +3°C° 0.5 mm 5 mps 695 mmHg 93%
16:00 +4°C° 2.7 mm 4 mps 695 mmHg 94%
17:00 +3°C° 2.7 mm 4 mps 696 mmHg 95%
18:00 +3°C° 2.7 mm 4 mps 696 mmHg 95%

29 January, Friday

Time Temperature Precipitation Wind Pressure Humidity
Show more